Regional Weather Roundup
Issued by NWS

Home | Current Version | Previous Version | Graphics & Text | Print | Product List | Glossary On
Versions: 1 2 3 4 5 6 7 8 9 10 11 12 13 14 15 16 17 18 19 20 21 22 23 24 25 26 27
000
ASUS45 KSLC 230210
RWRUT

UTAH REGIONAL WEATHER ROUNDUP
NATIONAL WEATHER SERVICE SALT LAKE CITY UT
800 PM MDT SUN OCT 22 2017

UTZ001>011-023>025-230300-

NORTHERN UTAH

CITY           SKY/WX    TMP DP  RH WIND       PRES   REMARKS
BRIGHAM CITY   CLOUDY    61  29  30 N5        30.35R
HILL AFB       CLOUDY    60  27  28 S7        30.35R
LOGAN          CLOUDY    56  36  47 NE5       30.34R
OGDEN          CLOUDY    61  31  32 SE6       30.33R
SALT LAKE CITY MOCLDY    62  30  29 CALM      30.34R
TOOELE VALLEY  CLEAR     43  32  65 SE6       30.35R
WENDOVER       CLEAR     54  27  35 CALM      30.34R
WEST JORDAN    PTCLDY    55  31  40 SW7       30.36R

$$

UTZ011>015-024>027-230300-

CENTRAL/NORTHEAST UTAH

CITY           SKY/WX    TMP DP  RH WIND       PRES   REMARKS
PROVO AIRPORT  MOCLDY    52  41  66 W5        30.36R
MOAB/CANYONLAN CLEAR     53  17  24 NW10      30.36R
DELTA          MOCLDY    54  27  35 NE5       30.37S
PRICE          PTCLDY    46  18  32 NE7       30.42R
RICHFIELD      CLEAR     52  28  40 CALM      30.42R
ROOSEVELT      CLOUDY    57  23  26 W5G16     30.35R
VERNAL         CLOUDY    47  25  42 NW7       30.34R

$$

UTZ013>016-019>022-027-230300-

SOUTHERN UTAH

CITY           SKY/WX    TMP DP  RH WIND       PRES   REMARKS
BRYCE CANYON   CLEAR     43  14  31 W9        30.51R
CEDAR CITY     CLEAR     55  20  25 SE8       30.39R
MILFORD        PTCLDY    51  18  27 S5        30.37R
ST GEORGE      PTCLDY    66  22  18 SE5       30.28R
HANKSVILLE     CLEAR     52  18  25 CALM      30.38R
KANAB          CLEAR     55  27  33 NE3       30.41R
BLANDING         N/A     46  16  30 NW6       30.49R

$$

REGIONAL REPORTS     COLORADO/ARIZONA

CITY           SKY/WX    TMP DP  RH WIND       PRES   REMARKS
CRAIG, CO      CLOUDY    50  24  36 W10       30.35R
GRAND JUNCTION CLOUDY    52  19  27 N7        30.38R
RIFLE, CO      CLOUDY    49  29  46 VRB3      30.39R
MONTROSE, CO   CLOUDY    49  27  42 S7        30.43R
CORTEZ, CO     CLEAR     46  22  38 NE8       30.43R
COLORADO CITY    N/A     61  28  29 NW7       30.41R
PAGE, AZ       CLEAR     61  21  21 SE7       30.34R
GRAND CANYON   CLEAR     41  13  31 NE3       30.47R
KINGMAN, AZ    CLEAR     65  26  23 E10       30.28R
FLAGSTAFF, AZ  CLEAR     47  14  26 CALM      30.48R

$$

REGIONAL REPORTS    NEVADA/IDAHO/WYOMING

CITY           SKY/WX    TMP DP  RH WIND       PRES   REMARKS
LAS VEGAS, NV  CLEAR     76  29  17 CALM      30.23R
ELY, NY        PTCLDY    53  13  20 W3        30.46R
ELKO, NV       CLEAR     59  28  30 W10       30.43R
POCATELLO, ID  MOCLDY    55  38  52 SW18      30.34R
BURLEY, ID     PTCLDY    53  40  61 SW6       30.34R
FORT BRIDGER,    N/A     50  26  39 W17G26    30.40R
EVANSTON, WY   CLOUDY    50  27  40 SW15      30.41R
ROCK SPRINGS,  CLOUDY    50  24  36 W18G29    30.34S
KEMMERER, WY   CLOUDY    45  28  53 W23G30    30.36S

$$




USA.gov is the U.S. government's official web portal to all federal, state and local government web resources and services.